DateTimeUTC,F1_A11,F1_S11,BsB_S11,BsG_S11,BsR_S11,BbsB_S11,BbsG_S11,BbsR_S11,BaB_A11,BaG_A11,BaR_A11,Tu_S11,T_S11,Uu_S11,U_S11,P_S11,T1_A11
2021-02-04T17:00:00Z,00000200,21000000,,,,,,,0000.23,-000.54,-000.23,16.9,23.9,00.9,00.6,0624.8,31.0
2021-02-04T17:01:00Z,00000200,21000000,,,,,,,0000.12,0000.44,0000.29,16.9,23.9,00.9,00.6,0624.8,31.0
2021-02-04T17:02:00Z,00000200,21000000,,,,,,,0000.01,0000.25,0000.16,16.9,23.9,00.9,00.6,0624.8,31.0
2021-02-04T17:03:00Z,00000200,61000000,,,,,,,0000.23,0000.15,-000.11,16.9,23.9,00.9,00.6,0624.8,31.0
2021-02-04T17:04:00Z,00000200,41000000,-000.47,-000.23,0000.15,-000.11,0000.12,0000.05,-000.49,-000.36,0000.13,17.2,23.8,01.0,00.7,0625.6,31.0
2021-02-04T17:05:00Z,00000200,01000000,0000.54,0000.16,0000.00,0000.36,-000.07,0000.09,0000.47,0000.47,0000.07,17.2,23.7,01.0,00.7,0625.4,31.0
2021-02-04T17:06:00Z,00000200,01000000,-000.13,-000.07,0000.09,0000.01,0000.20,0000.04,-000.08,0000.15,-000.02,17.2,23.7,01.0,00.7,0625.5,31.0
2021-02-04T17:07:00Z,00000200,01000000,0000.16,0000.18,0000.22,0000.12,0000.18,0000.18,0000.18,-000.34,0000.19,17.2,23.7,01.1,00.8,0625.5,31.0
2021-02-04T17:08:00Z,00000200,01000000,-000.37,0000.06,0000.06,-000.44,0000.36,0000.04,-000.02,-000.13,-000.03,17.2,23.7,01.1,00.8,0625.6,30.9
2021-02-04T17:09:00Z,00000200,01000000,-000.54,0000.29,-000.09,0000.05,0000.26,-000.16,-000.19,0000.39,-000.39,17.2,23.7,01.0,00.7,0625.4,31.0
2021-02-04T17:10:00Z,00000200,01000000,0000.01,-000.30,0000.05,0000.15,-000.15,0000.18,0000.13,0000.18,0000.49,17.2,23.7,01.1,00.8,0625.2,31.0
2021-02-04T17:11:00Z,00000200,01000000,-000.35,0000.03,-000.05,-000.43,0000.16,0000.05,0000.30,-000.23,-000.32,17.2,23.7,01.1,00.8,0625.1,31.0
2021-02-04T17:12:00Z,00000200,01000000,-000.55,-000.04,-000.10,-000.40,0000.30,0000.08,-000.12,0000.12,0000.16,17.2,23.7,01.0,00.7,0625.1,31.0
2021-02-04T17:13:00Z,00000200,01000000,0000.33,-000.10,0000.06,-000.40,0000.10,0000.14,-000.24,-000.04,0000.07,17.2,23.7,01.2,00.8,0625.4,31.0
2021-02-04T17:14:00Z,00000200,01000000,-000.03,-000.02,-000.04,-000.59,0000.24,-000.02,0000.15,0000.11,0000.05,17.2,23.7,01.2,00.8,0625.3,31.0
2021-02-04T17:15:00Z,00000200,01000000,0000.36,0000.20,-000.19,0000.07,0000.17,-000.18,0000.27,-000.11,0000.27,17.2,23.7,01.1,00.7,0625.4,30.9
2021-02-04T17:16:00Z,00000200,01000000,0000.31,0000.22,0000.06,-000.48,-000.05,0000.22,0000.07,0000.18,-000.14,17.1,23.6,01.1,00.7,0625.3,31.0
2021-02-04T17:17:00Z,00000200,01000000,0000.18,-000.04,0000.16,-000.16,0000.09,0000.19,-000.06,-000.22,-000.18,17.1,23.6,01.1,00.7,0625.3,31.0
2021-02-04T17:18:00Z,00000200,01000000,0000.43,0000.25,0000.28,-000.41,-000.03,0000.22,-000.24,-000.03,-000.07,17.1,23.6,01.1,00.8,0625.4,31.0
2021-02-04T17:19:00Z,00000200,01000000,-000.11,0000.05,0000.01,0000.15,-000.05,-000.01,-000.00,0000.19,0000.27,17.1,23.6,01.2,00.8,0625.3,31.0
2021-02-04T17:20:00Z,00000200,01000000,-000.19,-000.05,-000.07,0000.38,0000.18,0000.15,0000.15,-000.09,0000.18,17.1,23.6,01.2,00.8,0625.4,31.0
2021-02-04T17:21:00Z,00000200,01000000,-000.67,-000.05,0000.12,-000.01,0000.09,0000.02,0000.25,0000.63,-000.08,17.1,23.6,01.1,00.8,0625.4,30.9
2021-02-04T17:22:00Z,00000200,01000000,-000.07,0000.07,0000.02,0000.21,-000.17,0000.05,0000.01,-000.64,-000.11,17.1,23.6,01.1,00.7,0625.7,30.9
2021-02-04T17:23:00Z,00000200,01000000,-000.51,-000.00,-000.12,-000.06,0000.02,0000.06,-000.08,-000.00,0000.05,17.1,23.6,01.1,00.7,0625.9,31.0
2021-02-04T17:24:00Z,00000200,01000000,-000.57,0000.18,0000.12,-000.13,-000.07,-000.21,-000.20,0000.03,-000.03,17.1,23.6,01.1,00.7,0625.7,31.0
2021-02-04T17:25:00Z,00000200,01000000,-000.62,-000.13,-000.01,-000.01,0000.08,0000.06,-000.19,0000.03,-000.07,17.0,23.6,01.1,00.7,0625.9,31.0
2021-02-04T17:26:00Z,00000200,01000000,-000.93,0000.16,-000.05,-000.01,-000.03,0000.10,0000.37,0000.16,0000.28,17.0,23.5,01.1,00.7,0625.7,31.0
2021-02-04T17:27:00Z,00000200,01000000,-000.49,0000.15,0000.20,0000.21,0000.13,-000.27,-000.07,0000.28,0000.01,17.0,23.5,01.1,00.7,0625.8,31.0
2021-02-04T17:28:00Z,00000200,01000000,-000.06,-000.07,-000.02,-000.25,0000.27,0000.16,0000.15,0000.22,-000.07,17.0,23.5,01.1,00.8,0626.0,31.0
2021-02-04T17:29:00Z,00000200,01000000,-000.61,0000.05,-000.04,-000.09,0000.11,0000.27,0000.18,-000.48,-000.14,17.0,23.5,01.1,00.7,0626.0,31.0
2021-02-04T17:30:00Z,00000200,01000000,-000.07,-000.11,-000.00,0000.14,0000.08,-000.00,-000.20,-000.44,0000.05,17.0,23.5,01.2,00.8,0626.1,31.0
2021-02-04T17:31:00Z,00000200,01000000,-000.04,0000.08,0000.02,-000.44,0000.05,-000.28,-000.02,0000.74,0000.17,17.0,23.5,01.2,00.8,0626.1,30.9
2021-02-04T17:32:00Z,00000200,01000000,-000.51,-000.29,0000.13,0000.28,0000.44,-000.15,0000.19,-000.25,0000.15,17.1,23.5,01.2,00.8,0625.9,30.9
2021-02-04T17:33:00Z,00000200,01000000,0000.08,-000.01,-000.22,0000.13,0000.18,0000.01,-000.24,0000.21,-000.21,17.1,23.5,01.1,00.8,0625.9,30.9
2021-02-04T17:34:00Z,00000200,01000000,0000.32,-000.02,-000.30,0000.10,0000.20,-000.02,0000.32,-000.08,0000.44,17.1,23.5,01.1,00.8,0626.1,30.9
2021-02-04T17:35:00Z,00000200,01000000,-000.45,-000.40,0000.24,0000.38,0000.24,0000.27,0000.31,0000.26,-000.11,17.2,23.6,01.0,00.7,0626.0,30.9
2021-02-04T17:36:00Z,00000200,01000000,-000.79,-000.45,-000.02,-000.02,0000.35,-000.10,-000.09,0000.12,-000.02,17.2,23.6,01.1,00.8,0626.2,31.0
2021-02-04T17:37:00Z,00000200,01000000,0000.34,0000.04,-000.08,0000.27,0000.15,0000.00,-000.20,-000.04,-000.18,17.2,23.6,01.1,00.7,0626.3,31.0
2021-02-04T17:38:00Z,00000200,01000000,0000.01,-000.03,-000.08,0000.11,-000.05,0000.05,-000.19,-000.15,0000.21,17.2,23.6,01.2,00.8,0626.5,31.0
2021-02-04T17:39:00Z,00000200,01000000,-000.86,-000.01,0000.06,-000.14,0000.25,0000.23,0000.05,-000.34,-000.12,17.2,23.6,01.1,00.8,0626.3,31.0
2021-02-04T17:40:00Z,00000200,01000000,-000.83,-000.02,0000.03,-000.21,-000.09,-000.02,0000.43,0000.38,-000.03,17.2,23.6,01.2,00.8,0626.4,31.0
2021-02-04T17:41:00Z,00000200,01000000,-000.05,-000.13,-000.04,-000.59,0000.08,0000.05,-000.25,0000.04,0000.01,17.2,23.6,01.1,00.7,0626.6,31.0
2021-02-04T17:42:00Z,00000200,01000000,-000.41,-000.07,0000.35,0000.25,0000.01,0000.17,0000.26,0000.26,0000.02,17.2,23.6,01.1,00.7,0626.8,31.0
2021-02-04T17:43:00Z,00000200,01000000,0000.02,0000.03,0000.20,0000.38,-000.05,0000.36,-000.30,-000.22,0000.07,17.1,23.6,01.1,00.7,0627.1,30.9
2021-02-04T17:44:00Z,00000200,01000000,-000.36,-000.31,-000.01,-000.07,0000.12,0000.09,-000.03,-000.16,-000.30,17.1,23.6,01.1,00.7,0627.1,31.0
2021-02-04T17:45:00Z,00000200,01000000,-000.15,-000.06,-000.19,0000.08,0000.16,0000.10,-000.30,-000.31,0000.10,17.1,23.6,01.1,00.7,0627.1,31.0
2021-02-04T17:46:00Z,00000200,01000000,0000.06,0000.03,-000.01,-000.24,0000.29,-000.16,-000.10,0000.15,0000.17,17.1,23.6,01.1,00.7,0627.1,31.0
2021-02-04T17:47:00Z,00000200,01000000,-000.46,-000.18,-000.02,0000.25,0000.12,-000.02,0000.47,0000.03,-000.16,17.2,23.6,01.1,00.7,0627.0,31.0
2021-02-04T17:48:00Z,00000200,01000000,0000.16,-000.20,0000.21,-000.47,-000.06,-000.01,-000.45,-000.05,0000.23,17.2,23.6,01.1,00.8,0627.0,31.0
2021-02-04T17:49:00Z,00000200,01000000,-000.33,-000.32,0000.15,-000.64,-000.05,0000.26,-000.05,-000.19,0000.05,17.2,23.6,01.1,00.7,0627.0,31.0
2021-02-04T17:50:00Z,00000200,01000000,-000.11,0000.01,0000.29,0000.27,-000.12,-000.03,0000.44,0000.21,-000.01,17.2,23.6,01.0,00.7,0626.9,31.0
2021-02-04T17:51:00Z,00000200,01000000,-000.17,0000.06,-000.01,-000.04,0000.02,0000.03,0000.04,0000.24,-000.21,17.2,23.6,01.1,00.7,0627.2,31.0
2021-02-04T17:52:00Z,00000200,01000000,-000.52,-000.34,0000.28,0000.10,0000.14,0000.13,0000.11,-000.17,0000.19,17.2,23.6,01.1,00.7,0627.2,31.0
2021-02-04T17:53:00Z,00000200,01000000,-000.14,0000.09,0000.12,-000.07,0000.34,0000.11,-000.40,-000.44,-000.20,17.2,23.6,01.1,00.7,0627.1,31.0
2021-02-04T17:54:00Z,00000200,01000000,-000.15,-000.09,0000.22,0000.17,0000.09,-000.09,0000.09,0000.49,-000.11,17.2,23.6,01.0,00.7,0627.3,31.0
2021-02-04T17:55:00Z,00000200,01000000,-000.23,-000.09,-000.06,-000.38,0000.06,0000.07,0000.11,-000.24,0000.47,17.2,23.6,01.1,00.7,0627.1,31.0
2021-02-04T17:56:00Z,00000200,01000000,-000.76,-000.24,0000.13,-000.14,-000.19,0000.06,-000.32,0000.34,-000.24,17.2,23.6,01.0,00.7,0627.1,31.0
2021-02-04T17:57:00Z,00000200,41000000,,,,,,,0000.16,0000.07,0000.06,17.2,23.7,00.9,00.6,0627.0,31.0
2021-02-04T17:58:00Z,00000200,61000000,,,,,,,-000.01,-000.06,-000.32,16.9,23.7,00.9,00.6,0626.3,31.0
2021-02-04T17:59:00Z,00000200,21000000,,,,,,,-000.02,0000.05,0000.29,16.8,23.8,00.9,00.6,0626.3,31.0
